Tracking 19570 objects as of 22-Feb-2019
HD Live streaming from Space Station
objects crossing your sky now

WESTAR 5

Track WESTAR 5 now!
WESTAR 5 is classified as:


NORAD ID: 13269
Int'l Code: 1982-058A
Perigee: 36,035.2 km
Apogee: 36,151.9 km
Inclination: 15.3 °
Period: 1,451.4 minutes
Semi major axis: 42464 km
RCS: 3.0486 m2 (large)
Launch date: June 9, 1982
Source: United States (US)
Launch site: AIR FORCE EASTERN TEST RANGE (AFETR)
aabbcc
Your satellite tracking list
Your tracking list is empty




NASA's NSSDC Master Catalog

Two Line Element Set (TLE):
1 13269U 82058A   19052.35118743  .00000001  00000-0  00000+0 0  9993
2 13269  15.3060 358.9947 0013738 228.7053 128.0995  0.99211800 93019
Source of the keplerian elements: AFSPC